GW3919 Weather Reports


Display with metric or nautical units.
time (UTC)temp
F
wind
direction
speed
MPH
gust
MPH
rain 1hr
in
rain 24hr
in
rain mn
in
humidity
%
barometer
mb
20260904135417 82 264 2.0 2.0 0.00 0.00 0.00 89 1015.0
20260904134914 82 248 0.0 4.0 0.00 0.00 0.00 88 1015.0
20260904134413 83 264 2.0 3.0 0.00 0.00 0.00 88 1015.0
20260904133909 82 318 0.0 3.0 0.00 0.00 0.00 88 1014.8
20260904133409 82 291 7.0 7.0 0.00 0.00 0.00 88 1015.0
20260904132904 82 211 1.0 2.0 0.00 0.00 0.00 89 1014.7
20260904132359 81 278 1.0 3.0 0.00 0.00 0.00 90 1014.8
20260904131859 81 321 2.0 3.0 0.00 0.00 0.00 90 1014.8
20260904131354 80 320 2.0 2.0 0.00 0.00 0.00 91 1014.6
20260904130849 80 259 0.0 2.0 0.00 0.00 0.00 92 1014.7
20260904130348 79 347 2.0 2.0 0.00 0.00 0.00 93 1014.7
20260904125844 78 320 0.0 1.0 0.00 0.00 0.00 94 1014.7
20260904125340 77 307 0.0 2.0 0.00 0.00 0.00 96 1014.5
20260904124839 77 309 1.0 2.0 0.00 0.00 0.00 96 1014.6
20260904124335 77 283 1.0 2.0 0.00 0.00 0.00 97 1014.7
20260904123831 77 274 1.0 2.0 0.00 0.00 0.00 97 1014.5
20260904123326 77 286 1.0 2.0 0.00 0.00 0.00 96 1014.4
20260904122820 76 252 0.0 2.0 0.00 0.00 0.00 96 1014.6
20260904122315 76 253 0.0 2.0 0.00 0.00 0.00 96 1014.5
20260904121810 76 262 0.0 3.0 0.00 0.00 0.00 96 1014.3
20260904121306 76 288 3.0 3.0 0.00 0.00 0.00 96 1014.5
20260904120803 76 284 0.0 3.0 0.00 0.00 0.00 96 1014.4
20260904120258 76 316 2.0 3.0 0.00 0.00 0.00 96 1014.4
20260904115753 76 310 1.0 2.0 0.00 0.00 0.00 96 1014.3
20260904115248 76 237 3.0 3.0 0.00 0.00 0.00 96 1014.2
20260904114743 76 244 1.0 2.0 0.00 0.00 0.00 96 1014.2
20260904114242 76 230 0.0 2.0 0.00 0.00 0.00 95 1014.2
20260904113737 76 240 0.0 1.0 0.00 0.00 0.00 95 1014.1
20260904113237 76 334 0.0 1.0 0.00 0.00 0.00 95 1014.0
20260904112732 76 282 0.0 0.0 0.00 0.00 0.00 95 1014.1
20260904112227 76 1 0.0 2.0 0.00 0.00 0.00 95 1014.0
20260904111723 76 104 0.0 2.0 0.00 0.00 0.00 94 1014.1
20260904111219 76 279 1.0 2.0 0.00 0.00 0.00 94 1013.9
20260904110714 76 302 0.0 2.0 0.00 0.00 0.00 94 1014.1
20260904110213 76 315 0.0 1.0 0.00 0.00 0.00 94 1014.0
20260904105708 76 230 2.0 3.0 0.00 0.00 0.00 93 1013.8
20260904105203 76 226 2.0 2.0 0.00 0.00 0.00 93 1014.0
20260904104658 76 319 2.0 2.0 0.00 0.00 0.00 93 1014.1
20260904104154 76 309 2.0 2.0 0.00 0.00 0.00 93 1013.8
20260904103650 76 257 1.0 2.0 0.00 0.00 0.00 92 1013.7
20260904103145 77 282 1.0 3.0 0.00 0.00 0.00 92 1013.7
20260904102641 77 281 1.0 2.0 0.00 0.00 0.00 92 1013.7
20260904102136 77 300 3.0 3.0 0.00 0.00 0.00 92 1013.8
20260904101633 77 243 0.0 2.0 0.00 0.00 0.00 91 1013.7
20260904101128 77 230 0.0 2.0 0.00 0.00 0.00 91 1013.7
20260904100624 77 307 0.0 2.0 0.00 0.00 0.00 91 1013.7
20260904100119 77 265 0.0 2.0 0.00 0.00 0.00 91 1013.6
20260904095614 77 255 0.0 2.0 0.00 0.00 0.00 90 1013.7
20260904095108 77 241 0.0 2.0 0.00 0.00 0.00 90 1013.6
20260904094609 77 274 2.0 2.0 0.00 0.00 0.00 90 1013.5
20260904094103 78 255 0.0 2.0 0.00 0.00 0.00 90 1013.6
20260904093600 78 269 0.0 2.0 0.00 0.00 0.00 90 1013.5
20260904093055 78 320 0.0 1.0 0.00 0.00 0.00 90 1013.5
20260904092551 78 281 0.0 1.0 0.00 0.00 0.00 90 1013.6
20260904092047 78 37 0.0 1.0 0.00 0.00 0.00 90 1013.6
20260904091543 78 313 0.0 2.0 0.00 0.00 0.00 89 1013.6
20260904091042 78 205 0.0 0.0 0.00 0.00 0.00 89 1013.4
20260904090538 78 181 0.0 2.0 0.00 0.00 0.00 89 1013.8
20260904090033 78 240 0.0 1.0 0.00 0.00 0.00 89 1013.7
20260904085528 78 335 0.0 2.0 0.00 0.00 0.00 89 1013.7
20260904085028 78 269 0.0 1.0 0.00 0.00 0.00 88 1013.6
20260904084524 78 321 0.0 1.0 0.00 0.00 0.00 88 1013.7
20260904084020 78 283 1.0 1.0 0.00 0.00 0.00 88 1013.6
20260904083515 78 269 0.0 1.0 0.00 0.00 0.00 88 1013.6
20260904083011 78 157 0.0 2.0 0.00 0.00 0.00 88 1013.6
20260904082506 78 291 0.0 2.0 0.00 0.00 0.00 88 1013.5
20260904082001 78 245 0.0 1.0 0.00 0.00 0.00 88 1013.7
20260904081456 78 309 1.0 1.0 0.00 0.00 0.00 88 1013.6
20260904080952 78 310 0.0 1.0 0.00 0.00 0.00 87 1013.5
20260904080448 78 269 0.0 0.0 0.00 0.00 0.00 87 1013.5
20260904075943 78 349 0.0 1.0 0.00 0.00 0.00 87 1013.7
20260904075439 78 342 0.0 1.0 0.00 0.00 0.00 87 1013.4
20260904074938 78 252 0.0 1.0 0.00 0.00 0.00 87 1013.5
20260904074433 78 182 0.0 1.0 0.00 0.00 0.00 87 1013.4
20260904073928 78 269 0.0 1.0 0.00 0.00 0.00 86 1013.5
20260904073424 79 113 0.0 2.0 0.00 0.00 0.00 86 1013.4
20260904072919 79 54 0.0 1.0 0.00 0.00 0.00 86 1013.5
20260904072415 79 180 1.0 2.0 0.00 0.00 0.00 86 1013.5
20260904071910 79 314 0.0 2.0 0.00 0.00 0.00 86 1013.6
20260904071405 79 315 0.0 1.0 0.00 0.00 0.00 86 1013.3
20260904070900 79 257 0.0 2.0 0.00 0.00 0.00 85 1013.4
20260904070359 79 288 1.0 1.0 0.00 0.00 0.00 85 1013.5
20260904065854 79 281 0.0 1.0 0.00 0.00 0.00 85 1013.8
20260904065350 79 321 0.0 2.0 0.00 0.00 0.00 84 1013.7
20260904064850 79 321 1.0 2.0 0.00 0.00 0.00 84 1013.9
20260904064346 79 321 1.0 2.0 0.00 0.00 0.00 84 1013.9
20260904063841 79 261 0.0 3.0 0.00 0.00 0.00 84 1013.7
20260904063338 79 75 0.0 2.0 0.00 0.00 0.00 84 1013.8
20260904062838 79 312 1.0 2.0 0.00 0.00 0.00 84 1013.8
20260904062334 79 305 2.0 2.0 0.00 0.00 0.00 83 1013.8
20260904061829 80 252 0.0 2.0 0.00 0.00 0.00 83 1013.7
20260904061326 80 309 0.0 2.0 0.00 0.00 0.00 83 1013.6
20260904060821 80 310 2.0 2.0 0.00 0.00 0.00 83 1013.6
20260904060317 80 311 2.0 2.0 0.00 0.00 0.00 82 1013.5
20260904055812 80 289 1.0 2.0 0.00 0.00 0.00 82 1013.7
20260904055307 80 297 1.0 2.0 0.00 0.00 0.00 82 1013.7
20260904054802 80 232 1.0 3.0 0.00 0.00 0.00 81 1013.7
20260904054259 80 50 0.0 2.0 0.00 0.00 0.00 81 1013.7
20260904053754 80 198 2.0 2.0 0.00 0.00 0.00 81 1013.7
20260904053253 80 326 3.0 4.0 0.00 0.00 0.00 81 1013.6
20260904052750 80 273 2.0 2.0 0.00 0.00 0.00 81 1013.8
20260904052245 80 281 0.0 2.0 0.00 0.00 0.00 80 1013.7
20260904051743 80 322 2.0 2.0 0.00 0.00 0.00 80 1013.4
20260904051242 81 283 0.0 3.0 0.00 0.00 0.00 80 1013.7
20260904050737 81 211 2.0 3.0 0.00 0.00 0.00 79 1013.6
20260904050235 81 242 0.0 2.0 0.00 0.00 0.00 79 1013.6
20260904045734 81 281 2.0 3.0 0.00 0.00 0.00 78 1013.6
20260904045229 81 196 2.0 4.0 0.00 0.00 0.00 78 1013.7
20260904044724 81 328 2.0 5.0 0.00 0.00 0.00 78 1013.5
20260904044220 81 305 0.0 3.0 0.00 0.00 0.00 78 1013.5
20260904043717 81 181 2.0 3.0 0.00 0.00 0.00 78 1013.6
20260904043213 81 289 1.0 3.0 0.00 0.00 0.00 78 1013.7
20260904042708 81 325 0.0 4.0 0.00 0.00 0.00 79 1013.6
20260904042205 81 347 0.0 3.0 0.00 0.00 0.00 78 1013.6
20260904041704 81 336 0.0 3.0 0.00 0.00 0.00 78 1013.7
20260904041200 81 305 1.0 3.0 0.00 0.00 0.00 77 1013.9
20260904040656 81 265 2.0 3.0 0.00 0.00 0.00 77 1013.6
20260904040152 81 280 2.0 4.0 0.00 0.00 0.00 76 1013.7
20260904035647 82 347 0.0 2.0 0.00 0.00 0.00 76 1013.9
20260904035142 82 321 1.0 4.0 0.00 0.00 0.00 76 1013.7
20260904034641 82 93 1.0 4.0 0.00 0.00 0.00 76 1013.8
20260904034137 82 293 3.0 4.0 0.00 0.00 0.00 75 1013.8
20260904033633 82 99 0.0 2.0 0.00 0.00 0.00 74 1013.7
20260904033130 82 297 2.0 2.0 0.00 0.00 0.00 73 1013.7
20260904032625 82 290 1.0 2.0 0.00 0.00 0.00 73 1013.9
20260904032124 82 315 0.0 3.0 0.00 0.00 0.00 72 1013.9
20260904031623 82 175 3.0 3.0 0.00 0.00 0.00 72 1013.8
20260904031120 82 224 2.0 3.0 0.00 0.00 0.00 72 1014.0
20260904030615 82 256 3.0 3.0 0.00 0.00 0.00 72 1013.8
20260904030110 82 324 0.0 3.0 0.00 0.00 0.00 72 1013.6
20260904025606 82 280 0.0 2.0 0.00 0.00 0.00 72 1013.7
20260904025101 82 340 1.0 3.0 0.00 0.00 0.00 72 1013.4
20260904024557 82 290 1.0 3.0 0.00 0.00 0.00 72 1013.5
20260904024052 82 307 1.0 3.0 0.00 0.00 0.00 72 1013.5
20260904023543 83 297 1.0 4.0 0.00 0.00 0.00 72 1013.4
20260904023038 83 330 2.0 3.0 0.00 0.00 0.00 73 1013.3
20260904022532 83 62 0.0 2.0 0.00 0.00 0.00 73 1013.2
20260904022029 83 212 0.0 2.0 0.00 0.00 0.00 72 1013.2
20260904021525 83 341 3.0 3.0 0.00 0.00 0.00 72 1012.8
20260904021020 83 293 0.0 5.0 0.00 0.00 0.00 72 1012.7
20260904020520 83 349 2.0 3.0 0.00 0.00 0.00 73 1012.8
20260904020015 83 351 0.0 5.0 0.00 0.00 0.00 72 1012.6
20260904015509 83 327 2.0 4.0 0.00 0.00 0.00 73 1012.7
20260904015008 83 317 1.0 4.0 0.00 0.00 0.00 75 1012.7
20260904014502 83 304 0.0 3.0 0.00 0.00 0.00 76 1012.6
20260904013958 84 341 2.0 5.0 0.00 0.00 0.00 76 1012.6
20260904013455 84 286 1.0 5.0 0.00 0.00 0.00 75 1012.4
20260904012951 84 192 2.0 3.0 0.00 0.00 0.00 75 1012.4
20260904012450 84 274 2.0 2.0 0.00 0.00 0.00 75 1012.2
20260904011944 84 328 2.0 5.0 0.00 0.00 0.00 75 1012.3
20260904011438 85 286 2.0 3.0 0.00 0.00 0.00 75 1012.2
20260904010929 85 330 3.0 3.0 0.00 0.00 0.00 75 1012.2
20260904010425 85 294 2.0 4.0 0.00 0.00 0.00 74 1012.3
20260904005919 85 279 2.0 3.0 0.00 0.00 0.00 73 1012.1
20260904005416 85 309 3.0 3.0 0.00 0.00 0.00 73 1012.2
20260904004916 86 329 3.0 6.0 0.00 0.00 0.00 72 1012.2
20260904004413 86 330 2.0 3.0 0.00 0.00 0.00 70 1012.1
20260904003912 86 267 2.0 3.0 0.00 0.00 0.00 69 1012.1
20260904003408 86 304 2.0 4.0 0.00 0.00 0.00 68 1011.9
20260904002903 86 315 1.0 4.0 0.00 0.00 0.00 67 1012.1
20260904002400 87 320 2.0 4.0 0.00 0.00 0.00 66 1012.0
20260904001859 87 337 4.0 4.0 0.00 0.00 0.00 70 1012.2
20260904001354 88 298 2.0 4.0 0.00 0.00 0.00 69 1012.1
20260904000849 88 310 0.0 3.0 0.00 0.00 0.00 68 1011.9
20260904000349 88 295 4.0 5.0 0.00 0.00 0.00 68 1012.1
20260903235848 89 262 4.0 4.0 0.00 0.00 0.00 67 1011.9
20260903235344 89 282 3.0 3.0 0.00 0.00 0.00 67 1011.8
20260903234843 89 326 3.0 4.0 0.00 0.00 0.00 67 1012.0
20260903234340 89 294 5.0 5.0 0.00 0.00 0.00 66 1011.9
20260903233836 91 265 5.0 5.0 0.00 0.00 0.00 65 1011.9
20260903233332 90 261 3.0 3.0 0.00 0.00 0.00 65 1011.7
20260903232831 91 335 1.0 4.0 0.00 0.00 0.00 65 1011.6
20260903232327 92 272 2.0 3.0 0.00 0.00 0.00 64 1011.9
20260903231826 91 314 2.0 4.0 0.00 0.00 0.00 65 1012.0
20260903231321 92 320 3.0 5.0 0.00 0.00 0.00 64 1011.6
20260903230816 92 308 3.0 4.0 0.00 0.00 0.00 63 1011.8
20260903230312 90 289 2.0 5.0 0.00 0.00 0.00 66 1011.7
20260903225808 91 232 1.0 5.0 0.00 0.00 0.00 65 1011.7
20260903225306 91 292 5.0 8.0 0.00 0.00 0.00 65 1011.7
20260903224800 92 289 0.0 3.0 0.00 0.00 0.00 64 1011.5
20260903224255 93 256 4.0 7.0 0.00 0.00 0.00 62 1011.5
20260903223751 92 257 2.0 8.0 0.00 0.00 0.00 61 1011.5
20260903223249 93 306 2.0 4.0 0.00 0.00 0.00 60 1011.5
20260903222745 93 314 3.0 4.0 0.00 0.00 0.00 60 1011.6
20260903222243 94 273 2.0 5.0 0.00 0.00 0.00 59 1011.4
20260903221739 93 340 4.0 4.0 0.00 0.00 0.00 60 1011.3
20260903221237 92 308 3.0 4.0 0.00 0.00 0.00 61 1011.3
20260903220736 93 273 4.0 6.0 0.00 0.00 0.00 60 1011.5
20260903220231 92 306 3.0 8.0 0.00 0.00 0.00 62 1011.6
20260903215729 92 301 4.0 5.0 0.00 0.00 0.00 61 1011.7
20260903215225 93 225 3.0 3.0 0.00 0.00 0.00 62 1011.6
20260903214723 93 259 5.0 5.0 0.00 0.00 0.00 62 1011.8
20260903214220 92 269 3.0 4.0 0.00 0.00 0.00 62 1012.0
20260903213714 93 307 3.0 5.0 0.00 0.00 0.00 61 1012.0
20260903213210 93 293 2.0 5.0 0.00 0.00 0.00 62 1012.1
20260903212706 92 277 3.0 4.0 0.00 0.00 0.00 63 1012.2
20260903212202 92 302 5.0 6.0 0.00 0.00 0.00 63 1012.2
20260903211655 93 17 2.0 4.0 0.00 0.00 0.00 62 1012.3
20260903211152 92 224 4.0 5.0 0.00 0.00 0.00 63 1012.2
20260903210648 93 327 2.0 3.0 0.00 0.00 0.00 62 1012.2
20260903210143 92 294 2.0 5.0 0.00 0.00 0.00 64 1012.1
20260903205643 91 277 2.0 4.0 0.00 0.00 0.00 66 1012.2
20260903205142 90 293 4.0 6.0 0.00 0.00 0.00 67 1012.3
20260903204638 91 307 3.0 5.0 0.00 0.00 0.00 66 1012.4
20260903204134 91 282 3.0 4.0 0.00 0.00 0.00 65 1012.4
20260903203629 90 294 2.0 5.0 0.00 0.00 0.00 68 1012.4
20260903203130 89 296 1.0 4.0 0.00 0.00 0.00 68 1012.5
20260903202624 90 296 3.0 4.0 0.00 0.00 0.00 68 1012.7
20260903202120 89 318 2.0 5.0 0.00 0.00 0.00 69 1012.8
20260903201614 90 323 4.0 6.0 0.00 0.00 0.00 67 1012.9
20260903201113 91 113 2.0 5.0 0.00 0.00 0.00 66 1012.8
20260903200609 89 264 3.0 4.0 0.00 0.00 0.00 69 1012.9
20260903200104 91 296 6.0 8.0 0.00 0.00 0.00 66 1012.9
20260903195554 92 294 1.0 6.0 0.00 0.00 0.00 66 1012.7
20260903195050 92 202 0.0 3.0 0.00 0.00 0.00 65 1012.7
20260903194545 91 274 2.0 4.0 0.00 0.00 0.00 67 1012.6
20260903194040 90 35 1.0 4.0 0.00 0.00 0.00 69 1012.8
20260903193536 89 276 2.0 4.0 0.00 0.00 0.00 69 1012.9
20260903193025 88 300 2.0 3.0 0.00 0.00 0.00 71 1013.0
20260903192523 87 313 5.0 5.0 0.00 0.00 0.00 72 1013.2
20260903192022 87 309 4.0 6.0 0.00 0.00 0.00 73 1013.0
20260903191519 87 310 2.0 4.0 0.00 0.00 0.00 72 1013.1
20260903191018 88 297 2.0 4.0 0.00 0.00 0.00 72 1013.2
20260903190512 88 309 1.0 5.0 0.00 0.00 0.00 72 1013.4
20260903190007 89 267 2.0 4.0 0.00 0.00 0.00 71 1013.2
20260903185503 88 301 3.0 6.0 0.00 0.00 0.00 71 1013.4
20260903185002 89 347 0.0 4.0 0.00 0.00 0.00 71 1013.5
20260903184454 91 318 1.0 4.0 0.00 0.00 0.00 69 1013.6
20260903183953 90 263 3.0 5.0 0.00 0.00 0.00 70 1013.8
20260903183447 88 335 4.0 4.0 0.00 0.00 0.00 72 1013.7
20260903182942 87 352 3.0 3.0 0.00 0.00 0.00 74 1013.8
20260903182441 86 337 0.0 6.0 0.00 0.00 0.00 76 1014.0
20260903181936 86 338 4.0 10.0 0.00 0.00 0.00 75 1014.0
20260903181431 86 281 1.0 4.0 0.00 0.00 0.00 76 1014.1
20260903180930 86 329 2.0 3.0 0.00 0.00 0.00 76 1014.0
20260903180425 86 333 4.0 6.0 0.00 0.00 0.00 76 1014.3
20260903175924 86 331 4.0 5.0 0.00 0.00 0.00 77 1014.1
20260903175419 86 334 2.0 5.0 0.00 0.00 0.00 77 1014.3
20260903174913 85 265 5.0 6.0 0.00 0.00 0.00 77 1014.3
20260903174408 85 331 3.0 9.0 0.00 0.00 0.00 77 1014.7
20260903173903 85 258 2.0 5.0 0.00 0.00 0.00 78 1014.4
20260903173358 84 207 2.0 5.0 0.00 0.00 0.00 80 1014.5
20260903172853 83 333 4.0 5.0 0.00 0.00 0.00 81 1014.6
20260903172348 83 282 3.0 4.0 0.00 0.00 0.00 82 1014.7
20260903171843 82 268 3.0 3.0 0.00 0.00 0.00 83 1014.7
20260903171338 82 328 2.0 5.0 0.00 0.00 0.00 84 1014.8
20260903170838 83 273 3.0 4.0 0.00 0.00 0.00 84 1014.7
20260903170333 83 298 4.0 5.0 0.00 0.00 0.00 83 1014.5
20260903165831 83 317 3.0 6.0 0.00 0.00 0.00 83 1014.6
20260903165331 83 313 2.0 6.0 0.00 0.00 0.00 83 1014.3
20260903164826 83 333 4.0 4.0 0.00 0.00 0.00 83 1014.5
20260903164321 84 314 1.0 4.0 0.00 0.00 0.00 83 1014.5
20260903163820 84 291 0.0 3.0 0.00 0.00 0.00 83 1014.3
20260903163318 84 315 0.0 4.0 0.00 0.00 0.00 83 1014.4
20260903162813 84 280 2.0 3.0 0.00 0.00 0.00 84 1014.4
20260903162309 83 325 2.0 3.0 0.00 0.00 0.00 84 1014.3
20260903161805 83 285 0.0 2.0 0.00 0.00 0.00 85 1014.4
20260903161300 83 260 4.0 5.0 0.00 0.00 0.00 85 1014.3
20260903160756 83 313 0.0 3.0 0.00 0.00 0.00 86 1014.2
20260903160255 83 339 2.0 5.0 0.00 0.00 0.00 86 1014.2
20260903155753 82 134 0.0 4.0 0.00 0.00 0.00 86 1014.2
20260903155248 82 249 1.0 3.0 0.00 0.00 0.00 87 1014.3
20260903154744 82 348 4.0 5.0 0.00 0.00 0.00 87 1014.4
20260903154240 82 347 2.0 4.0 0.00 0.00 0.00 88 1014.4
20260903153735 82 311 2.0 3.0 0.00 0.00 0.00 88 1014.3
20260903153231 82 304 2.0 4.0 0.00 0.00 0.00 89 1014.3
20260903152727 82 328 2.0 3.0 0.00 0.00 0.00 89 1014.3
20260903152223 82 263 2.0 4.0 0.00 0.00 0.00 89 1014.3
20260903151722 82 292 1.0 3.0 0.00 0.00 0.00 89 1014.4
20260903151218 82 284 0.0 2.0 0.00 0.00 0.00 89 1014.3
20260903150713 82 295 1.0 4.0 0.00 0.00 0.00 89 1014.2
20260903150207 81 324 2.0 4.0 0.00 0.00 0.00 89 1014.1
20260903145702 82 230 4.0 4.0 0.00 0.00 0.00 89 1014.1
20260903145157 82 310 1.0 2.0 0.00 0.00 0.00 89 1014.4
20260903144656 81 340 2.0 3.0 0.00 0.00 0.00 89 1014.2
20260903144152 82 316 3.0 5.0 0.00 0.00 0.00 89 1014.3
20260903143648 82 311 2.0 3.0 0.00 0.00 0.00 89 1014.3
20260903143143 82 326 1.0 3.0 0.00 0.00 0.00 89 1014.2
20260903142639 81 284 1.0 4.0 0.00 0.00 0.00 89 1014.2
20260903142136 81 317 0.0 3.0 0.00 0.00 0.00 90 1014.1
20260903141631 81 280 1.0 2.0 0.00 0.00 0.00 90 1014.3
20260903141125 80 276 1.0 3.0 0.00 0.00 0.00 90 1014.0
20260903140622 80 240 0.0 1.0 0.00 0.00 0.00 91 1014.3
20260903140117 80 347 2.0 3.0 0.00 0.00 0.00 91 1014.3